• In Hungary
  • List of Countries
  • For 7 days
  • Water Temperature
  • Satellite Maps
  • Weather Map
  • News
  • Weather Widgets
  • user-avatar
    Login

    Hourly Weather Wiszno

    Today, 19 July, Thursday

    Time Temperature Precipitation Wind Pressure Humidity
    00:00 +19°C° 0.2 mm 4 mps 751 mmHg 96%
    01:00 +19°C° 0 mm 3 mps 751 mmHg 96%
    02:00 +19°C° 0.1 mm 3 mps 751 mmHg 95%
    03:00 +19°C° 0.1 mm 4 mps 751 mmHg 95%
    04:00 +19°C° 0.1 mm 4 mps 751 mmHg 94%
    05:00 +20°C° 0.1 mm 4 mps 751 mmHg 91%
    06:00 +20°C° 0.1 mm 4 mps 751 mmHg 88%
    07:00 +21°C° 0.1 mm 4 mps 752 mmHg 84%
    08:00 +22°C° 0.2 mm 4 mps 752 mmHg 83%
    09:00 +22°C° 0.2 mm 5 mps 752 mmHg 82%
    10:00 +23°C° 0.2 mm 5 mps 752 mmHg 81%
    11:00 +23°C° 0.2 mm 5 mps 752 mmHg 79%
    12:00 +23°C° 0.2 mm 5 mps 752 mmHg 78%
    13:00 +23°C° 0.2 mm 4 mps 752 mmHg 77%
    14:00 +23°C° 0.1 mm 4 mps 752 mmHg 77%
    15:00 +23°C° 0.1 mm 4 mps 752 mmHg 77%
    16:00 +23°C° 0.1 mm 4 mps 752 mmHg 77%
    17:00 +22°C° 0 mm 4 mps 752 mmHg 79%
    18:00 +22°C° 0 mm 4 mps 752 mmHg 81%
    19:00 +21°C° 0 mm 4 mps 752 mmHg 83%
    20:00 +21°C° 0 mm 4 mps 752 mmHg 84%
    21:00 +20°C° 0 mm 4 mps 752 mmHg 85%
    22:00 +19°C° 0 mm 4 mps 753 mmHg 86%
    23:00 +19°C° 0 mm 4 mps 752 mmHg 86%

    Tomorrow, 20 July, Friday

    Time Temperature Precipitation Wind Pressure Humidity
    00:00 +18°C° 0 mm 4 mps 752 mmHg 86%
    01:00 +18°C° 0 mm 4 mps 752 mmHg 86%
    02:00 +18°C° 0 mm 4 mps 752 mmHg 87%
    03:00 +17°C° 0 mm 4 mps 752 mmHg 88%
    04:00 +17°C° 0 mm 4 mps 752 mmHg 89%
    05:00 +18°C° 0 mm 4 mps 752 mmHg 84%
    06:00 +20°C° 0 mm 5 mps 752 mmHg 80%
    07:00 +21°C° 0 mm 5 mps 752 mmHg 75%
    08:00 +22°C° 0 mm 5 mps 752 mmHg 72%
    09:00 +22°C° 0 mm 6 mps 752 mmHg 69%
    10:00 +23°C° 0 mm 6 mps 753 mmHg 65%
    11:00 +23°C° 0 mm 6 mps 753 mmHg 63%
    12:00 +23°C° 0 mm 6 mps 753 mmHg 60%
    13:00 +24°C° 0 mm 6 mps 752 mmHg 58%
    14:00 +23°C° 0 mm 6 mps 752 mmHg 58%
    15:00 +23°C° 0 mm 6 mps 752 mmHg 58%
    16:00 +22°C° 0 mm 6 mps 752 mmHg 58%
    17:00 +21°C° 0 mm 6 mps 752 mmHg 63%
    18:00 +20°C° 0 mm 5 mps 752 mmHg 67%
    19:00 +19°C° 0 mm 4 mps 752 mmHg 72%
    20:00 +18°C° 0 mm 4 mps 752 mmHg 77%
    21:00 +17°C° 0 mm 4 mps 752 mmHg 82%
    22:00 +15°C° 0 mm 4 mps 752 mmHg 87%
    23:00 +14°C° 0 mm 4 mps 752 mmHg 89%

    Day after tomorrow, 21 July, Saturday

    Time Temperature Precipitation Wind Pressure Humidity
    00:00 +14°C° 0 mm 4 mps 752 mmHg 91%
    01:00 +14°C° 0 mm 4 mps 751 mmHg 93%
    02:00 +14°C° 0 mm 4 mps 751 mmHg 93%
    03:00 +14°C° 0 mm 4 mps 751 mmHg 94%
    04:00 +14°C° 0 mm 4 mps 751 mmHg 95%
    05:00 +17°C° 0 mm 4 mps 751 mmHg 89%
    06:00 +18°C° 0 mm 4 mps 751 mmHg 82%
    07:00 +20°C° 0 mm 5 mps 751 mmHg 76%
    08:00 +21°C° 0 mm 4 mps 752 mmHg 71%
    09:00 +22°C° 0 mm 4 mps 752 mmHg 67%
    10:00 +23°C° 0 mm 4 mps 752 mmHg 62%
    11:00 +25°C° 0 mm 4 mps 752 mmHg 61%
    12:00 +25°C° 0 mm 4 mps 752 mmHg 59%
    13:00 +25°C° 0 mm 5 mps 752 mmHg 58%
    14:00 +25°C° 0 mm 4 mps 752 mmHg 58%
    15:00 +25°C° 0 mm 4 mps 751 mmHg 59%
    16:00 +25°C° 0 mm 4 mps 751 mmHg 59%
    17:00 +23°C° 0 mm 4 mps 751 mmHg 65%
    18:00 +21°C° 0 mm 3 mps 751 mmHg 70%
    19:00 +20°C° 0 mm 3 mps 751 mmHg 75%
    20:00 +19°C° 0 mm 3 mps 751 mmHg 80%
    21:00 +18°C° 0 mm 3 mps 751 mmHg 85%
    22:00 +17°C° 0 mm 3 mps 752 mmHg 90%
    23:00 +16°C° 0 mm 3 mps 751 mmHg 89%

    22 July, Sunday

    Time Temperature Precipitation Wind Pressure Humidity
    00:00 +16°C° 0 mm 3 mps 751 mmHg 89%
    01:00 +16°C° 0 mm 3 mps 751 mmHg 89%
    02:00 +16°C° 0 mm 3 mps 751 mmHg 89%
    03:00 +15°C° 0 mm 2 mps 751 mmHg 90%
    04:00 +15°C° 0 mm 2 mps 751 mmHg 90%
    05:00 +17°C° 0 mm 2 mps 751 mmHg 84%
    06:00 +19°C° 0 mm 2 mps 751 mmHg 78%
    07:00 +20°C° 0 mm 2 mps 751 mmHg 71%
    08:00 +23°C° 0 mm 2 mps 751 mmHg 65%
    09:00 +24°C° 0 mm 2 mps 751 mmHg 58%
    10:00 +26°C° 0 mm 2 mps 751 mmHg 51%
    11:00 +26°C° 0 mm 3 mps 751 mmHg 52%
    12:00 +27°C° 0 mm 3 mps 751 mmHg 52%
    13:00 +27°C° 0 mm 3 mps 751 mmHg 52%
    14:00 +26°C° 0.3 mm 3 mps 751 mmHg 55%
    15:00 +26°C° 0.3 mm 3 mps 751 mmHg 59%
    16:00 +26°C° 0.3 mm 3 mps 751 mmHg 63%
    17:00 +24°C° 0.2 mm 3 mps 751 mmHg 69%
    18:00 +22°C° 0.2 mm 3 mps 751 mmHg 75%
    19:00 +21°C° 0.2 mm 3 mps 751 mmHg 81%
    20:00 +20°C° 0 mm 3 mps 751 mmHg 85%
    21:00 +19°C° 0 mm 3 mps 752 mmHg 89%
    22:00 +17°C° 0 mm 3 mps 752 mmHg 93%
    23:00 +17°C° 0 mm 3 mps 752 mmHg 93%

    23 July, Monday

    Time Temperature Precipitation Wind Pressure Humidity
    00:00 +17°C° 0 mm 3 mps 752 mmHg 93%
    01:00 +16°C° 0 mm 3 mps 752 mmHg 94%
    02:00 +16°C° 0 mm 3 mps 752 mmHg 94%
    03:00 +16°C° 0 mm 3 mps 752 mmHg 94%
    04:00 +16°C° 0 mm 3 mps 752 mmHg 95%
    05:00 +17°C° 0 mm 3 mps 752 mmHg 89%
    06:00 +18°C° 0 mm 4 mps 752 mmHg 82%
    07:00 +20°C° 0 mm 4 mps 752 mmHg 76%
    08:00 +21°C° 0 mm 4 mps 752 mmHg 72%
    09:00 +21°C° 0 mm 4 mps 753 mmHg 68%
    10:00 +22°C° 0 mm 5 mps 753 mmHg 64%
    11:00 +22°C° 0 mm 5 mps 753 mmHg 65%
    12:00 +22°C° 0 mm 5 mps 753 mmHg 66%
    13:00 +21°C° 0 mm 5 mps 753 mmHg 68%
    14:00 +21°C° 0 mm 5 mps 753 mmHg 70%
    15:00 +21°C° 0 mm 5 mps 753 mmHg 73%
    16:00 +20°C° 0 mm 5 mps 753 mmHg 76%
    17:00 +20°C° 0 mm 5 mps 753 mmHg 78%
    18:00 +20°C° 0 mm 4 mps 753 mmHg 81%
    19:00 +19°C° 0 mm 4 mps 752 mmHg 83%
    20:00 +19°C° 0 mm 4 mps 753 mmHg 88%
    21:00 +18°C° 0 mm 4 mps 753 mmHg 92%
    22:00 +17°C° 0 mm 4 mps 753 mmHg 96%
    23:00 +17°C° 0 mm 4 mps 753 mmHg 97%

    24 July, Tuesday

    Time Temperature Precipitation Wind Pressure Humidity
    00:00 +17°C° 0 mm 4 mps 753 mmHg 97%
    01:00 +17°C° 0 mm 4 mps 753 mmHg 97%
    02:00 +17°C° 0 mm 4 mps 753 mmHg 97%
    03:00 +17°C° 0 mm 4 mps 753 mmHg 96%
    04:00 +18°C° 0 mm 4 mps 753 mmHg 96%
    05:00 +19°C° 0 mm 4 mps 753 mmHg 90%
    06:00 +21°C° 0 mm 4 mps 753 mmHg 85%
    07:00 +22°C° 0 mm 4 mps 753 mmHg 79%
    08:00 +23°C° 0 mm 4 mps 753 mmHg 75%
    09:00 +25°C° 0 mm 4 mps 753 mmHg 70%
    10:00 +26°C° 0 mm 5 mps 753 mmHg 65%
    11:00 +26°C° 0 mm 5 mps 753 mmHg 64%
    12:00 +26°C° 0 mm 5 mps 754 mmHg 62%
    13:00 +27°C° 0 mm 5 mps 754 mmHg 61%
    14:00 +26°C° 0 mm 5 mps 754 mmHg 61%
    15:00 +26°C° 0 mm 4 mps 753 mmHg 62%
    16:00 +26°C° 0 mm 4 mps 753 mmHg 63%
    17:00 +25°C° 0 mm 4 mps 753 mmHg 68%
    18:00 +24°C° 0 mm 3 mps 753 mmHg 73%
    19:00 +22°C° 0 mm 3 mps 753 mmHg 78%
    20:00 +20°C° 0 mm 3 mps 753 mmHg 83%
    21:00 +19°C° 0 mm 2 mps 754 mmHg 88%
    22:00 +18°C° 0 mm 2 mps 754 mmHg 93%
    23:00 +18°C° 0 mm 2 mps 754 mmHg 93%
    Show more